{"data":{"norad_id":41599,"intl_designator":"2016-040A","name":"CARTOSAT-2C","alt_names":[],"object_type":"PAYLOAD","status":"ACTIVE","operator":null,"country":"IND","launch_date":"2016-06-22","launch_site_code":"SRILR","launch_vehicle":null,"mission":null,"orbit_class":"UNKNOWN","rcs_meters":1.9953,"size_class":null,"mass_kg":null,"dimensions":null,"purposes":["earth_obs"],"wikipedia_slug":null,"has_3d_model":false,"image_url":null,"decayed_at":null,"tle_current":{"epoch":"2026-09-20T04:02:16.350720Z","epoch_age_seconds":42940,"freshness":"FRESH","line1":"1 41599U 16040A   26263.16824480  .00002348  00000+0  11441-3 0  9991","line2":"2 41599  97.4386 321.7854 0009590 155.1010 205.0689 15.19292327568137","mean_motion":15.19292327,"eccentricity":0.000959,"inclination_deg":97.4386,"raan_deg":321.7854,"arg_perigee_deg":155.101,"mean_anomaly_deg":205.0689,"bstar":0.00011441,"rev_number":56813,"period_min":94.780969692872,"perigee_km":501.37432757375,"apogee_km":514.5818963585,"semimajor_km":6886.1151119661,"source":"CELESTRAK","updated_at":"2026-09-20T09:00:33.966682Z"}}}